M I D A S
Marine Information and Data Acquisition System
Tripno 1951 of the Zeeleeuw from 2010-09-02 04:33:45 to 2010-09-02 17:55:37
Back to CruiseResearch ActivitiesStationsMapUnderway DataData graphs

EquipmentUnitsComments
TimeDGPSUTC
LatitudeDGPSDM.mWGS84
LongitudeDGPSDM.mWGS84
SpeedMeteo Stationm/sRelative wind speed
DirectionMeteo StationdegRelative wind direction
TemperatureMeteo Stationdeg CelciusAir temperature
PressureMeteo StationPaAtmospheric pressure
HumidityMeteo Station%Relative humidity
Missing or incorrect values are displayed as -999
Metereological data collected by the RV Zeeleeuw from 2010-09-02 04:11:33 to 2010-09-02 18:05:22
                                                                                    Next 1000 lines
Time Latitude Longitude Speed Direction Temperature Pressure Humidity
2010-09-02 04:11:44 51°13.664 2°55.959 0.1 282 12.4 101930 46
2010-09-02 04:11:49 51°13.664 2°55.959 0.1 40 12.4 101930 46
2010-09-02 04:11:54 51°13.664 2°55.959 0.2 282 12.4 101930 48
2010-09-02 04:11:59 51°13.664 2°55.959 0.5 316 12.4 101930 48
2010-09-02 04:12:04 51°13.664 2°55.959 0.1 282 12.3 101930 47
2010-09-02 04:12:08 51°13.664 2°55.959 0.1 320 12.3 101930 47
2010-09-02 04:12:14 51°13.664 2°55.959 -999 282 12.3 101930 47
2010-09-02 04:12:19 51°13.664 2°55.959 -999 35 12.3 101930 47
2010-09-02 04:12:24 51°13.664 2°55.959 -999 281 12.4 101930 48
2010-09-02 04:12:28 51°13.664 2°55.959 -999 36 12.4 101930 48
2010-09-02 04:12:33 51°13.664 2°55.958 -999 282 12.4 101930 48
2010-09-02 04:12:39 51°13.664 2°55.958 -999 35 12.4 101930 48
2010-09-02 04:12:43 51°13.664 2°55.959 -999 282 12.3 101930 48
2010-09-02 04:12:49 51°13.664 2°55.958 -999 35 12.3 101930 48
2010-09-02 04:12:53 51°13.664 2°55.958 -999 282 12.3 101930 48
2010-09-02 04:12:59 51°13.665 2°55.959 -999 321 12.3 101930 48
2010-09-02 04:13:04 51°13.665 2°55.959 -999 282 12.3 101930 48
2010-09-02 04:13:08 51°13.665 2°55.959 -999 317 12.3 101930 48
2010-09-02 04:13:13 51°13.664 2°55.959 -999 282 12.3 101930 48
2010-09-02 04:13:19 51°13.664 2°55.959 -999 35 12.3 101930 48
2010-09-02 04:13:24 51°13.664 2°55.959 0.4 282 12.3 101930 48
2010-09-02 04:13:28 51°13.664 2°55.959 0.1 316 12.3 101930 48
2010-09-02 04:13:34 51°13.664 2°55.959 0.1 282 12.3 101930 47
2010-09-02 04:13:39 51°13.664 2°55.959 -999 35 12.3 101930 49
2010-09-02 04:13:44 51°13.664 2°55.959 -999 282 12.3 101930 49
2010-09-02 04:13:48 51°13.664 2°55.959 -999 35 12.3 101930 49
2010-09-02 04:13:53 51°13.663 2°55.959 -999 282 12.3 101930 47
2010-09-02 04:13:59 51°13.662 2°55.959 -999 256 12.3 101930 48
2010-09-02 04:14:04 51°13.661 2°55.959 -999 282 12.3 101930 48
2010-09-02 04:14:08 51°13.661 2°55.959 -999 35 12.3 101930 47
2010-09-02 04:14:13 51°13.66 2°55.959 -999 282 12.3 101930 47
2010-09-02 04:14:19 51°13.66 2°55.959 -999 35 12.3 101930 47
2010-09-02 04:14:24 51°13.659 2°55.959 -999 282 12.3 101930 46
2010-09-02 04:14:28 51°13.659 2°55.959 0.1 32 12.3 101930 48
2010-09-02 04:14:33 51°13.66 2°55.959 0.1 282 12.3 101930 48
2010-09-02 04:14:39 51°13.66 2°55.959 -999 35 12.3 101930 48
2010-09-02 04:14:43 51°13.66 2°55.959 -999 282 12.3 101930 48
2010-09-02 04:14:49 51°13.661 2°55.959 0.1 237 12.3 101930 48
2010-09-02 04:14:53 51°13.662 2°55.959 1.4 283 12.3 101930 47
2010-09-02 04:14:59 51°13.662 2°55.959 1.2 231 12.3 101930 47
2010-09-02 04:15:03 51°13.662 2°55.959 1 278 12.3 101930 47
2010-09-02 04:15:08 51°13.662 2°55.959 0.7 34 12.3 101930 47
2010-09-02 04:15:14 51°13.662 2°55.959 0.1 282 12.3 101930 47
2010-09-02 04:15:19 51°13.662 2°55.959 0.1 35 12.3 101930 47
2010-09-02 04:15:24 51°13.663 2°55.959 -999 282 12.3 101930 46
2010-09-02 04:15:28 51°13.663 2°55.959 0.1 32 12.3 101930 46
2010-09-02 04:15:33 51°13.663 2°55.959 0.1 277 12.3 101930 47
2010-09-02 04:15:39 51°13.664 2°55.959 0.1 34 12.3 101930 48
2010-09-02 04:15:44 51°13.664 2°55.959 0.1 282 12.3 101930 48
2010-09-02 04:15:48 51°13.664 2°55.959 0.8 231 12.3 101930 48
2010-09-02 04:15:53 51°13.664 2°55.959 1 284 12.3 101930 47
2010-09-02 04:15:59 51°13.664 2°55.959 0.7 232 12.3 101930 45
2010-09-02 04:16:04 51°13.664 2°55.959 0.2 282 12.3 101930 45
2010-09-02 04:16:08 51°13.664 2°55.959 0.2 317 12.3 101930 45
2010-09-02 04:16:13 51°13.664 2°55.959 0.2 287 12.3 101930 47
2010-09-02 04:16:19 51°13.664 2°55.959 0.5 318 12.3 101930 47
2010-09-02 04:16:24 51°13.664 2°55.959 0.1 282 12.3 101930 47
2010-09-02 04:16:28 51°13.664 2°55.959 1 34 12.3 101930 47
2010-09-02 04:16:33 51°13.664 2°55.959 0.2 282 12.3 101930 48
2010-09-02 04:16:38 51°13.664 2°55.959 0.1 326 12.3 101930 48
2010-09-02 04:16:44 51°13.664 2°55.959 0.1 282 12.3 101920 47
2010-09-02 04:16:48 51°13.664 2°55.959 1 316 12.3 101930 47
2010-09-02 04:16:53 51°13.663 2°55.959 0.6 283 12.3 101930 47
2010-09-02 04:16:59 51°13.663 2°55.959 0.3 324 12.3 101930 47
2010-09-02 04:17:03 51°13.663 2°55.959 0.1 282 12.3 101920 46
2010-09-02 04:17:09 51°13.663 2°55.959 0.1 35 12.3 101920 46
2010-09-02 04:17:13 51°13.663 2°55.959 -999 282 12.3 101930 49
2010-09-02 04:17:19 51°13.663 2°55.959 -999 35 12.3 101930 49
2010-09-02 04:17:23 51°13.664 2°55.959 0.1 285 12.3 101930 47
2010-09-02 04:17:28 51°13.664 2°55.959 0.2 32 12.3 101930 47
2010-09-02 04:17:34 51°13.664 2°55.959 0.1 282 12.3 101920 47
2010-09-02 04:17:39 51°13.664 2°55.959 0.1 40 12.3 101920 47
2010-09-02 04:17:44 51°13.664 2°55.959 0.2 282 12.3 101930 47
2010-09-02 04:17:48 51°13.664 2°55.959 0.1 318 12.3 101930 47
2010-09-02 04:17:53 51°13.664 2°55.959 0.1 282 12.3 101930 47
2010-09-02 04:17:59 51°13.664 2°55.959 0.1 325 12.3 101930 47
2010-09-02 04:18:04 51°13.664 2°55.959 -999 282 12.3 101930 47
2010-09-02 04:18:08 51°13.664 2°55.959 -999 318 12.3 101930 47
2010-09-02 04:18:13 51°13.664 2°55.959 -999 282 12.3 101930 47
2010-09-02 04:18:19 51°13.664 2°55.959 -999 35 12.3 101930 47
2010-09-02 04:18:24 51°13.664 2°55.959 -999 282 12.3 101930 47
2010-09-02 04:18:28 51°13.664 2°55.959 -999 35 12.3 101930 47
2010-09-02 04:18:33 51°13.664 2°55.959 -999 281 12.3 101930 47
2010-09-02 04:18:39 51°13.664 2°55.959 -999 36 12.3 101930 47
2010-09-02 04:18:44 51°13.664 2°55.959 0.1 287 12.3 101930 47
2010-09-02 04:18:48 51°13.664 2°55.959 0.1 33 12.3 101930 47
2010-09-02 04:18:53 51°13.664 2°55.959 0.1 282 12.3 101930 47
2010-09-02 04:18:59 51°13.664 2°55.959 -999 236 12.3 101930 47
2010-09-02 04:19:04 51°13.664 2°55.959 0.1 282 12.3 101930 47
2010-09-02 04:19:08 51°13.663 2°55.959 0.1 35 12.3 101930 47
2010-09-02 04:19:13 51°13.663 2°55.959 0.1 282 12.3 101930 47
2010-09-02 04:19:19 51°13.663 2°55.959 0.4 34 12.3 101930 47
2010-09-02 04:19:23 51°13.664 2°55.959 0.1 282 12.3 101930 47
2010-09-02 04:19:28 51°13.663 2°55.959 0.1 317 12.3 101930 47
2010-09-02 04:19:33 51°13.663 2°55.959 -999 282 12.3 101930 47
2010-09-02 04:19:39 51°13.663 2°55.959 -999 35 12.3 101930 47
2010-09-02 04:19:44 51°13.663 2°55.959 -999 282 12.3 101930 46
2010-09-02 04:19:48 51°13.663 2°55.959 -999 35 12.3 101930 47
2010-09-02 04:19:53 51°13.663 2°55.959 -999 282 12.3 101930 47
2010-09-02 04:19:59 51°13.663 2°55.959 -999 35 12.3 101930 47
2010-09-02 04:20:04 51°13.663 2°55.959 -999 282 12.3 101930 47
2010-09-02 04:20:08 51°13.662 2°55.959 -999 35 12.3 101930 47
2010-09-02 04:20:13 51°13.661 2°55.959 -999 282 12.3 101930 47
2010-09-02 04:20:19 51°13.661 2°55.959 -999 35 12.3 101930 47
2010-09-02 04:20:24 51°13.662 2°55.959 -999 282 12.3 101930 47
2010-09-02 04:20:28 51°13.662 2°55.959 -999 319 12.3 101930 47
2010-09-02 04:20:33 51°13.663 2°55.96 -999 282 12.3 101930 47
2010-09-02 04:20:39 51°13.663 2°55.96 0.1 320 12.3 101930 47
2010-09-02 04:20:44 51°13.663 2°55.96 0.1 282 12.3 101930 47
2010-09-02 04:20:48 51°13.663 2°55.96 0.1 317 12.3 101930 47
2010-09-02 04:20:53 51°13.664 2°55.96 -999 282 12.3 101930 47
2010-09-02 04:20:59 51°13.664 2°55.96 -999 236 12.3 101930 47
2010-09-02 04:21:04 51°13.664 2°55.96 -999 282 12.3 101930 47
2010-09-02 04:21:08 51°13.663 2°55.96 1 30 12.3 101930 47
2010-09-02 04:21:13 51°13.663 2°55.96 0.2 278 12.3 101930 47
2010-09-02 04:21:19 51°13.663 2°55.96 0.3 322 12.3 101930 47
2010-09-02 04:21:23 51°13.663 2°55.96 0.1 282 12.3 101930 47
2010-09-02 04:21:28 51°13.664 2°55.96 0.1 34 12.3 101930 47
2010-09-02 04:21:33 51°13.664 2°55.96 -999 277 12.3 101930 47
2010-09-02 04:21:39 51°13.664 2°55.96 0.1 32 12.3 101930 47
2010-09-02 04:21:44 51°13.664 2°55.96 0.3 286 12.3 101930 47
2010-09-02 04:21:49 51°13.664 2°55.96 0.1 317 12.3 101930 47
2010-09-02 04:21:53 51°13.664 2°55.96 0.1 282 12.3 101930 47
2010-09-02 04:21:58 51°13.663 2°55.96 0.1 318 12.3 101930 47
2010-09-02 04:22:03 51°13.663 2°55.96 0.1 282 12.3 101930 47
2010-09-02 04:22:08 51°13.664 2°55.96 0.1 32 12.3 101930 47
2010-09-02 04:22:13 51°13.663 2°55.96 0.1 282 12.3 101930 47
2010-09-02 04:22:19 51°13.663 2°55.96 -999 35 12.3 101930 47
2010-09-02 04:22:23 51°13.663 2°55.96 -999 282 12.3 101930 47
2010-09-02 04:22:28 51°13.663 2°55.959 -999 35 12.3 101930 47
2010-09-02 04:22:32 51°13.663 2°55.959 -999 282 12.3 101930 47
2010-09-02 04:22:38 51°13.663 2°55.959 -999 237 12.3 101930 47
2010-09-02 04:22:43 51°13.663 2°55.959 -999 282 12.3 101930 47
2010-09-02 04:22:48 51°13.663 2°55.959 -999 40 12.3 101930 47
2010-09-02 04:22:52 51°13.663 2°55.959 0.2 282 12.3 101930 47
2010-09-02 04:22:59 51°13.663 2°55.959 0.5 35 12.3 101930 47
2010-09-02 04:23:03 51°13.662 2°55.959 0.7 281 12.2 101930 47
2010-09-02 04:23:08 51°13.662 2°55.959 1.1 319 12.2 101930 47
2010-09-02 04:23:12 51°13.663 2°55.96 0.3 284 12.2 101930 47
2010-09-02 04:23:19 51°13.663 2°55.96 0.3 32 12.2 101930 47
2010-09-02 04:23:24 51°13.663 2°55.96 0.1 282 12.3 101930 48
2010-09-02 04:23:29 51°13.662 2°55.96 0.1 318 12.2 101930 47
2010-09-02 04:23:33 51°13.662 2°55.96 -999 282 12.2 101930 47
2010-09-02 04:23:38 51°13.662 2°55.96 -999 35 12.2 101930 47
2010-09-02 04:23:44 51°13.662 2°55.96 -999 282 12.2 101930 47
2010-09-02 04:23:49 51°13.662 2°55.96 -999 36 12.3 101930 47
2010-09-02 04:23:53 51°13.662 2°55.96 -999 282 12.3 101930 47
2010-09-02 04:23:58 51°13.662 2°55.96 0.4 32 12.3 101930 47
2010-09-02 04:24:04 51°13.662 2°55.959 1.3 283 12.2 101930 47
2010-09-02 04:24:09 51°13.662 2°55.959 0.8 39 12.2 101930 47
2010-09-02 04:24:13 51°13.661 2°55.96 0.5 283 12.2 101930 47
2010-09-02 04:24:19 51°13.662 2°55.96 0.1 34 12.2 101930 46
2010-09-02 04:24:24 51°13.662 2°55.96 0.1 282 12.2 101930 46
2010-09-02 04:24:29 51°13.661 2°55.96 1.2 322 12.2 101930 46
2010-09-02 04:24:33 51°13.661 2°55.96 1.7 283 12.2 101930 48
2010-09-02 04:24:39 51°13.661 2°55.96 1.3 322 12.2 101930 47
2010-09-02 04:24:44 51°13.661 2°55.96 0.3 282 12.2 101930 47
2010-09-02 04:24:49 51°13.661 2°55.959 0.6 321 12.2 101930 46
2010-09-02 04:24:53 51°13.662 2°55.959 0.1 282 12.2 101930 46
2010-09-02 04:24:59 51°13.662 2°55.958 0.1 322 12.2 101930 46
2010-09-02 04:25:04 51°13.663 2°55.956 0.1 287 12.2 101930 47
2010-09-02 04:25:09 51°13.663 2°55.953 0.5 31 12.2 101930 47
2010-09-02 04:25:13 51°13.664 2°55.951 0.2 282 12.2 101930 47
2010-09-02 04:25:19 51°13.666 2°55.946 0.1 35 12.2 101930 47
2010-09-02 04:25:24 51°13.667 2°55.942 0.1 282 12.2 101930 47
2010-09-02 04:25:29 51°13.668 2°55.937 -999 242 12.2 101930 47
2010-09-02 04:25:35 51°13.67 2°55.929 0.1 282 12.2 101930 47
2010-09-02 04:25:41 51°13.671 2°55.922 0.1 248 12.2 101930 47
2010-09-02 04:25:47 51°13.674 2°55.913 0.1 282 12.2 101920 47
2010-09-02 04:25:52 51°13.675 2°55.905 0.1 262 12.2 101920 47
2010-09-02 04:25:57 51°13.676 2°55.897 0.1 278 12.2 101930 47
2010-09-02 04:26:02 51°13.678 2°55.889 0.1 259 12.2 101930 47
2010-09-02 04:26:07 51°13.68 2°55.88 0.1 282 12.2 101930 47
2010-09-02 04:26:12 51°13.682 2°55.871 0.1 265 12.2 101930 47
2010-09-02 04:26:17 51°13.683 2°55.862 -999 82 12.2 101930 47
2010-09-02 04:26:22 51°13.685 2°55.853 0.1 44 12.2 101930 47
2010-09-02 04:26:27 51°13.686 2°55.844 0.1 282 12.2 101930 47
2010-09-02 04:26:32 51°13.688 2°55.835 0.1 237 12.2 101930 47
2010-09-02 04:26:37 51°13.689 2°55.827 0.1 282 12.2 101930 47
2010-09-02 04:26:42 51°13.691 2°55.818 0.1 325 12.2 101930 47
2010-09-02 04:26:47 51°13.692 2°55.81 -999 282 12.2 101930 47
2010-09-02 04:26:52 51°13.693 2°55.802 -999 321 12.2 101930 47
2010-09-02 04:26:57 51°13.695 2°55.794 -999 282 12.2 101920 47
2010-09-02 04:27:02 51°13.696 2°55.786 -999 317 12.2 101920 47
2010-09-02 04:27:07 51°13.697 2°55.778 -999 282 12.2 101920 47
2010-09-02 04:27:12 51°13.698 2°55.77 -999 331 12.2 101920 47
2010-09-02 04:27:17 51°13.699 2°55.763 -999 282 12.2 101930 47
2010-09-02 04:27:22 51°13.7 2°55.756 -999 324 12.2 101920 47
2010-09-02 04:27:27 51°13.701 2°55.75 -999 282 12.2 101920 47
2010-09-02 04:27:32 51°13.701 2°55.744 0.5 338 12.2 101920 47
2010-09-02 04:27:37 51°13.702 2°55.74 0.6 283 12.2 101930 47
2010-09-02 04:27:41 51°13.702 2°55.737 0.3 333 12.2 101930 47
2010-09-02 04:27:46 51°13.703 2°55.734 0.2 287 12.2 101920 46
2010-09-02 04:27:51 51°13.703 2°55.732 0.2 338 12.2 101920 46
2010-09-02 04:27:56 51°13.703 2°55.73 0.6 283 12.2 101920 47
2010-09-02 04:28:01 51°13.704 2°55.73 0.6 341 12.2 101920 47
2010-09-02 04:28:06 51°13.705 2°55.73 1.9 283 12.2 101930 47
2010-09-02 04:28:11 51°13.706 2°55.731 1.5 351 12.2 101930 47
2010-09-02 04:28:15 51°13.707 2°55.732 2.5 278 12.2 101930 47
2010-09-02 04:28:21 51°13.707 2°55.733 2.3 359 12.2 101930 47
2010-09-02 04:28:25 51°13.708 2°55.734 2.4 283 12.2 101930 46
2010-09-02 04:28:30 51°13.708 2°55.734 1.9 357 12.2 101920 49
2010-09-02 04:28:35 51°13.709 2°55.734 1.7 8 12.2 101920 49
2010-09-02 04:28:40 51°13.709 2°55.733 2 7 12.2 101920 49
2010-09-02 04:28:45 51°13.709 2°55.732 2 13 12.2 101920 49
2010-09-02 04:28:49 51°13.708 2°55.731 1.9 11 12.2 101920 46
2010-09-02 04:28:54 51°13.708 2°55.729 1.3 16 12.2 101920 46
2010-09-02 04:28:59 51°13.706 2°55.728 1.7 21 12.2 101920 46
2010-09-02 04:29:04 51°13.705 2°55.726 0.5 12 12.2 101930 49
2010-09-02 04:29:09 51°13.704 2°55.724 1.4 20 12.2 101930 49
2010-09-02 04:29:14 51°13.703 2°55.723 0.9 21 12.2 101920 47
2010-09-02 04:29:19 51°13.702 2°55.722 1.5 29 12.2 101930 47
2010-09-02 04:29:24 51°13.701 2°55.721 1.7 27 12.2 101930 47
2010-09-02 04:29:29 51°13.701 2°55.72 1.2 19 12.2 101930 46
2010-09-02 04:29:35 51°13.7 2°55.719 0.5 18 12.2 101930 46
2010-09-02 04:29:40 51°13.7 2°55.719 0.1 22 12.2 101930 49
2010-09-02 04:29:45 51°13.7 2°55.718 1.4 22 12.2 101930 49
2010-09-02 04:29:49 51°13.7 2°55.718 1.9 15 12.2 101930 49
2010-09-02 04:29:54 51°13.701 2°55.718 1.8 20 12.2 101920 49
2010-09-02 04:29:59 51°13.701 2°55.717 1.6 8 12.2 101920 49
2010-09-02 04:30:04 51°13.702 2°55.717 1.4 24 12.3 101930 46
2010-09-02 04:30:09 51°13.703 2°55.717 1.7 16 12.3 101930 47
2010-09-02 04:30:13 51°13.704 2°55.717 0.4 18 12.3 101930 47
2010-09-02 04:30:19 51°13.706 2°55.716 0.1 20 12.3 101930 47
2010-09-02 04:30:24 51°13.707 2°55.715 0.1 19 12.3 101930 46
2010-09-02 04:30:29 51°13.709 2°55.714 -999 25 12.3 101930 49
2010-09-02 04:30:33 51°13.711 2°55.713 0.1 18 12.3 101930 49
2010-09-02 04:30:39 51°13.714 2°55.711 0.1 17 12.3 101930 47
2010-09-02 04:30:44 51°13.716 2°55.709 0.2 20 12.3 101930 47
2010-09-02 04:30:49 51°13.718 2°55.706 0.1 12 12.3 101930 47
2010-09-02 04:30:53 51°13.72 2°55.704 0.1 3 12.3 101930 47
2010-09-02 04:30:59 51°13.725 2°55.7 0.2 1 12.3 101930 47
2010-09-02 04:31:04 51°13.729 2°55.696 0.3 360 12.3 101930 47
2010-09-02 04:31:09 51°13.735 2°55.693 0.3 2 12.3 101930 47
2010-09-02 04:31:13 51°13.739 2°55.689 0.4 357 12.3 101930 47
2010-09-02 04:31:19 51°13.747 2°55.684 0.4 355 12.3 101930 49
2010-09-02 04:31:24 51°13.753 2°55.68 1.4 357 12.3 101930 49
2010-09-02 04:31:29 51°13.761 2°55.675 1.4 357 12.3 101930 47
2010-09-02 04:31:33 51°13.767 2°55.671 1.6 355 12.3 101930 47
2010-09-02 04:31:39 51°13.777 2°55.665 1.8 354 12.3 101920 47
2010-09-02 04:31:44 51°13.785 2°55.659 1.4 355 12.3 101920 47
2010-09-02 04:31:49 51°13.794 2°55.652 2.6 353 12.3 101930 47
2010-09-02 04:31:53 51°13.801 2°55.647 2.6 350 12.3 101930 47
2010-09-02 04:31:59 51°13.812 2°55.638 1.7 346 12.3 101930 47
2010-09-02 04:32:04 51°13.822 2°55.632 2.5 280 12.3 101930 47
2010-09-02 04:32:09 51°13.833 2°55.624 3.2 350 12.3 101930 47
2010-09-02 04:32:13 51°13.841 2°55.618 3.5 286 12.3 101930 47
2010-09-02 04:32:19 51°13.854 2°55.609 3.1 346 12.3 101930 47
2010-09-02 04:32:24 51°13.866 2°55.601 3.2 351 12.3 101930 49
2010-09-02 04:32:29 51°13.876 2°55.592 3.4 343 12.3 101930 46
2010-09-02 04:32:33 51°13.886 2°55.586 3.7 346 12.3 101930 46
2010-09-02 04:32:39 51°13.9 2°55.576 3.4 349 12.3 101930 46
2010-09-02 04:32:43 51°13.91 2°55.569 2.9 354 12.2 101930 46
2010-09-02 04:32:49 51°13.924 2°55.559 3.4 348 12.2 101930 47
2010-09-02 04:32:53 51°13.934 2°55.552 3.2 277 12.2 101930 47
2010-09-02 04:32:58 51°13.946 2°55.544 3.6 347 12.2 101930 47
2010-09-02 04:33:04 51°13.96 2°55.533 3.7 353 12.2 101930 48
2010-09-02 04:33:09 51°13.973 2°55.525 4 356 12.2 101930 48
2010-09-02 04:33:13 51°13.983 2°55.518 3.3 349 12.3 101920 46
2010-09-02 04:33:19 51°13.997 2°55.507 3.7 352 12.3 101920 49
2010-09-02 04:33:24 51°14.01 2°55.499 3.4 353 12.3 101920 49
2010-09-02 04:33:29 51°14.023 2°55.491 3.7 349 12.3 101920 49
2010-09-02 04:33:33 51°14.033 2°55.484 3.5 352 12.3 101920 48
2010-09-02 04:33:39 51°14.048 2°55.474 3.1 349 12.3 101920 49
2010-09-02 04:33:44 51°14.06 2°55.465 3.2 283 12.3 101920 49
2010-09-02 04:33:49 51°14.072 2°55.455 3.9 355 12.3 101920 49
2010-09-02 04:33:53 51°14.082 2°55.448 3.9 284 12.3 101920 49
2010-09-02 04:33:59 51°14.097 2°55.437 3.4 349 12.3 101920 47
2010-09-02 04:34:04 51°14.11 2°55.428 3.4 348 12.3 101920 47
2010-09-02 04:34:09 51°14.122 2°55.419 3.5 346 12.3 101920 47
2010-09-02 04:34:13 51°14.132 2°55.411 3 280 12.3 101920 47
2010-09-02 04:34:19 51°14.147 2°55.399 3.9 339 12.3 101920 46
2010-09-02 04:34:24 51°14.159 2°55.39 3 346 12.3 101920 46
2010-09-02 04:34:29 51°14.171 2°55.38 3.2 349 12.3 101920 49
2010-09-02 04:34:33 51°14.181 2°55.372 3.5 283 12.3 101920 49
2010-09-02 04:34:38 51°14.193 2°55.362 3.1 341 12.3 101920 49
2010-09-02 04:34:44 51°14.208 2°55.35 3.4 351 12.4 101920 49
2010-09-02 04:34:49 51°14.22 2°55.34 3.3 355 12.3 101920 49
2010-09-02 04:34:53 51°14.23 2°55.331 3.2 278 12.3 101920 49
2010-09-02 04:34:58 51°14.242 2°55.32 3.5 347 12.3 101920 49
2010-09-02 04:35:03 51°14.254 2°55.309 3.4 348 12.3 101920 49
2010-09-02 04:35:09 51°14.269 2°55.295 3.5 345 12.3 101920 49
2010-09-02 04:35:13 51°14.28 2°55.286 3.6 351 12.3 101920 49
2010-09-02 04:35:19 51°14.295 2°55.272 3.6 350 12.3 101920 49
2010-09-02 04:35:24 51°14.308 2°55.261 3.4 354 12.3 101920 49
2010-09-02 04:35:29 51°14.321 2°55.25 4 348 12.3 101920 49
2010-09-02 04:35:33 51°14.331 2°55.24 3.6 350 12.3 101920 46
2010-09-02 04:35:39 51°14.346 2°55.225 3.6 355 12.3 101920 46
2010-09-02 04:35:44 51°14.359 2°55.212 3.5 280 12.3 101920 47
2010-09-02 04:35:49 51°14.371 2°55.198 3.9 350 12.3 101920 47
2010-09-02 04:35:53 51°14.381 2°55.187 2.5 353 12.3 101920 46
2010-09-02 04:35:59 51°14.396 2°55.17 2.9 353 12.3 101920 46
2010-09-02 04:36:04 51°14.409 2°55.156 3.7 278 12.3 101920 49
2010-09-02 04:36:09 51°14.422 2°55.143 3.7 350 12.3 101920 49
2010-09-02 04:36:13 51°14.433 2°55.132 3.5 278 12.3 101920 48
2010-09-02 04:36:19 51°14.449 2°55.116 3.8 349 12.3 101920 47
2010-09-02 04:36:24 51°14.463 2°55.103 4.2 351 12.3 101920 47
2010-09-02 04:36:29 51°14.476 2°55.089 3.7 352 12.3 101920 47
2010-09-02 04:36:33 51°14.487 2°55.078 4.3 350 12.3 101920 47
2010-09-02 04:36:39 51°14.504 2°55.062 4.1 351 12.3 101920 47
2010-09-02 04:36:44 51°14.518 2°55.049 4.6 279 12.3 101920 46
2010-09-02 04:36:49 51°14.533 2°55.036 4.5 349 12.3 101920 47
2010-09-02 04:36:53 51°14.544 2°55.026 5.4 353 12.3 101920 47
2010-09-02 04:36:59 51°14.562 2°55.011 5.4 356 12.3 101920 47
2010-09-02 04:37:03 51°14.574 2°55.001 5.9 354 12.4 101920 47
2010-09-02 04:37:09 51°14.592 2°54.986 5.4 355 12.4 101920 47
2010-09-02 04:37:13 51°14.604 2°54.976 5.8 357 12.4 101920 47
2010-09-02 04:37:18 51°14.619 2°54.962 5.7 357 12.5 101920 49
2010-09-02 04:37:23 51°14.634 2°54.948 5.4 358 12.5 101920 49
2010-09-02 04:37:29 51°14.652 2°54.931 5.3 354 12.5 101920 49
2010-09-02 04:37:33 51°14.664 2°54.92 5.3 352 12.5 101920 49
2010-09-02 04:37:39 51°14.682 2°54.901 5.4 350 12.5 101920 49
2010-09-02 04:37:44 51°14.696 2°54.885 5 355 12.5 101910 48
2010-09-02 04:37:49 51°14.71 2°54.87 5.3 356 12.5 101920 47
2010-09-02 04:37:54 51°14.725 2°54.853 5.3 354 12.5 101920 47
2010-09-02 04:37:59 51°14.739 2°54.837 5 353 12.5 101920 47
2010-09-02 04:38:04 51°14.754 2°54.821 6.1 356 12.6 101910 49
2010-09-02 04:38:09 51°14.769 2°54.805 6 353 12.6 101910 49
2010-09-02 04:38:13 51°14.78 2°54.792 5 353 12.6 101920 47
2010-09-02 04:38:19 51°14.798 2°54.773 5.9 354 12.7 101920 48
2010-09-02 04:38:24 51°14.813 2°54.757 5.1 356 12.7 101920 48
2010-09-02 04:38:29 51°14.827 2°54.741 5 351 12.7 101920 48
2010-09-02 04:38:33 51°14.839 2°54.729 5.3 351 12.7 101920 48
2010-09-02 04:38:38 51°14.853 2°54.713 5.1 354 12.7 101920 48
2010-09-02 04:38:43 51°14.868 2°54.697 5.8 356 12.7 101920 48
2010-09-02 04:38:49 51°14.885 2°54.677 5.1 355 12.7 101920 48
2010-09-02 04:38:53 51°14.897 2°54.664 5 354 12.7 101920 47
2010-09-02 04:38:58 51°14.911 2°54.647 4.8 356 12.7 101920 47
2010-09-02 04:39:04 51°14.928 2°54.626 5.1 357 12.8 101920 49
2010-09-02 04:39:09 51°14.942 2°54.609 5.3 360 12.8 101920 47
2010-09-02 04:39:13 51°14.953 2°54.596 5.9 358 12.8 101920 47
2010-09-02 04:39:18 51°14.967 2°54.578 5.1 359 12.8 101920 47
2010-09-02 04:39:23 51°14.981 2°54.561 5.1 359 12.8 101920 49
2010-09-02 04:39:29 51°14.997 2°54.54 5.3 -999 12.8 101920 49
2010-09-02 04:39:33 51°15.008 2°54.526 4.4 358 12.8 101920 47
2010-09-02 04:39:38 51°15.022 2°54.509 5.5 356 12.8 101920 47
2010-09-02 04:39:43 51°15.037 2°54.492 5.4 358 12.8 101910 49
2010-09-02 04:39:49 51°15.053 2°54.471 5.5 3 12.8 101920 47
2010-09-02 04:39:53 51°15.065 2°54.457 4.5 1 12.8 101920 47
2010-09-02 04:39:59 51°15.081 2°54.436 3.7 358 12.8 101920 47
2010-09-02 04:40:03 51°15.093 2°54.423 4.4 356 12.9 101920 48
2010-09-02 04:40:08 51°15.107 2°54.405 5.2 355 12.9 101920 48
2010-09-02 04:40:13 51°15.121 2°54.387 4.7 354 12.9 101920 48
2010-09-02 04:40:18 51°15.134 2°54.37 5.1 354 12.9 101920 49
2010-09-02 04:40:23 51°15.148 2°54.353 5.1 359 12.9 101920 49
2010-09-02 04:40:29 51°15.165 2°54.332 5.4 358 12.9 101920 49
2010-09-02 04:40:33 51°15.177 2°54.318 5.2 358 12.9 101920 47
2010-09-02 04:40:38 51°15.19 2°54.301 5.4 356 13 101920 47
2010-09-02 04:40:44 51°15.207 2°54.28 5.1 359 13 101920 47
2010-09-02 04:40:49 51°15.222 2°54.263 5.2 2 13 101920 47
2010-09-02 04:40:53 51°15.233 2°54.249 5 358 13 101930 49
2010-09-02 04:40:59 51°15.249 2°54.228 4.9 359 13 101920 48
2010-09-02 04:41:04 51°15.263 2°54.211 4.8 356 13 101920 48
2010-09-02 04:41:09 51°15.277 2°54.194 4.7 -999 13 101920 48
2010-09-02 04:41:13 51°15.288 2°54.18 4.9 356 13.1 101920 47
2010-09-02 04:41:18 51°15.303 2°54.162 4.9 358 13.1 101920 47
2010-09-02 04:41:24 51°15.319 2°54.141 5.4 359 13.1 101930 49
2010-09-02 04:41:29 51°15.334 2°54.124 5.3 358 13.1 101920 49
2010-09-02 04:41:33 51°15.345 2°54.11 5.4 355 13.1 101920 49
2010-09-02 04:41:38 51°15.359 2°54.093 4.8 355 13.2 101920 47
2010-09-02 04:41:43 51°15.373 2°54.075 5.3 358 13.2 101920 47
2010-09-02 04:41:49 51°15.39 2°54.055 5.2 356 13.2 101920 49
2010-09-02 04:41:53 51°15.401 2°54.041 5.2 356 13.2 101920 49
2010-09-02 04:41:58 51°15.415 2°54.024 5.3 1 13.2 101920 49
2010-09-02 04:42:03 51°15.429 2°54.006 5.3 -999 13.2 101930 47
2010-09-02 04:42:09 51°15.446 2°53.985 4.8 3 13.2 101920 48
2010-09-02 04:42:13 51°15.457 2°53.971 4.5 359 13.2 101920 48
2010-09-02 04:42:19 51°15.473 2°53.95 5.3 358 13.2 101920 48
2010-09-02 04:42:23 51°15.485 2°53.936 5.4 359 13.3 101920 47
2010-09-02 04:42:28 51°15.499 2°53.919 5.6 1 13.3 101920 47
2010-09-02 04:42:33 51°15.513 2°53.901 5.3 -999 13.3 101920 47
2010-09-02 04:42:39 51°15.529 2°53.88 4.8 358 13.3 101920 47
2010-09-02 04:42:43 51°15.54 2°53.866 5 359 13.3 101920 49
2010-09-02 04:42:49 51°15.557 2°53.846 4.9 358 13.3 101920 49
2010-09-02 04:42:53 51°15.569 2°53.832 5.4 1 13.3 101920 49
2010-09-02 04:42:58 51°15.583 2°53.816 5.4 1 13.3 101930 48
2010-09-02 04:43:04 51°15.6 2°53.796 4.7 3 13.3 101930 48
2010-09-02 04:43:09 51°15.614 2°53.779 4.7 1 13.3 101930 48
2010-09-02 04:43:13 51°15.625 2°53.766 4.8 1 13.4 101920 49
2010-09-02 04:43:18 51°15.64 2°53.75 5 -999 13.4 101920 49
2010-09-02 04:43:23 51°15.654 2°53.733 5.4 360 13.4 101920 47
2010-09-02 04:43:29 51°15.672 2°53.714 5.4 -999 13.4 101920 47
2010-09-02 04:43:33 51°15.683 2°53.7 4.7 2 13.4 101920 47
2010-09-02 04:43:38 51°15.697 2°53.684 4.5 359 13.4 101920 47
2010-09-02 04:43:43 51°15.712 2°53.667 5.5 358 13.4 101920 46
2010-09-02 04:43:49 51°15.729 2°53.648 5.7 359 13.4 101930 46
2010-09-02 04:43:53 51°15.74 2°53.635 5.4 360 13.4 101930 46
2010-09-02 04:43:58 51°15.755 2°53.619 5.7 358 13.4 101930 46
2010-09-02 04:44:03 51°15.769 2°53.602 5.8 358 13.5 101930 47
2010-09-02 04:44:09 51°15.786 2°53.583 6.2 358 13.5 101930 46
2010-09-02 04:44:13 51°15.798 2°53.57 5.3 1 13.5 101930 46
2010-09-02 04:44:18 51°15.813 2°53.554 5.3 1 13.5 101930 47
2010-09-02 04:44:23 51°15.828 2°53.538 5.2 -999 13.5 101930 47
2010-09-02 04:44:29 51°15.846 2°53.52 5 -999 13.5 101930 47
2010-09-02 04:44:33 51°15.858 2°53.508 5.8 359 13.6 101930 48
2010-09-02 04:44:38 51°15.873 2°53.493 5.8 359 13.6 101930 48
2010-09-02 04:44:43 51°15.888 2°53.478 6.6 359 13.6 101930 46
2010-09-02 04:44:49 51°15.906 2°53.461 5.7 360 13.6 101930 46
2010-09-02 04:44:53 51°15.918 2°53.449 6.4 359 13.6 101930 48
2010-09-02 04:44:58 51°15.934 2°53.435 5.5 358 13.6 101920 46
2010-09-02 04:45:03 51°15.949 2°53.421 5.9 359 13.6 101920 46
2010-09-02 04:45:09 51°15.968 2°53.404 5.6 -999 13.6 101920 46
2010-09-02 04:45:13 51°15.98 2°53.392 5.4 1 13.6 101930 48
2010-09-02 04:45:18 51°15.996 2°53.379 5.6 358 13.6 101920 46
2010-09-02 04:45:23 51°16.011 2°53.365 5.3 360 13.6 101920 46
2010-09-02 04:45:29 51°16.03 2°53.349 6 360 13.6 101920 46
2010-09-02 04:45:33 51°16.043 2°53.338 6 357 13.6 101920 47
2010-09-02 04:45:38 51°16.059 2°53.324 5.5 3 13.7 101930 48
2010-09-02 04:45:43 51°16.074 2°53.31 6.2 -999 13.7 101930 48
2010-09-02 04:45:49 51°16.093 2°53.294 6.5 1 13.7 101930 46
2010-09-02 04:45:53 51°16.106 2°53.283 6 1 13.7 101930 46
2010-09-02 04:45:58 51°16.121 2°53.27 6.1 359 13.7 101930 46
2010-09-02 04:46:04 51°16.14 2°53.254 6.1 359 13.8 101930 48
2010-09-02 04:46:09 51°16.155 2°53.24 5.6 360 13.8 101920 48
2010-09-02 04:46:13 51°16.168 2°53.229 5.9 360 13.8 101920 48
2010-09-02 04:46:18 51°16.183 2°53.216 6.5 358 13.8 101920 44
2010-09-02 04:46:23 51°16.199 2°53.202 6.3 1 13.8 101920 44
2010-09-02 04:46:29 51°16.217 2°53.186 5.6 2 13.8 101930 46
2010-09-02 04:46:33 51°16.23 2°53.175 6.2 -999 13.8 101930 46
2010-09-02 04:46:38 51°16.245 2°53.162 5 1 13.8 101930 46
2010-09-02 04:46:43 51°16.261 2°53.148 5.3 1 13.8 101920 46
2010-09-02 04:46:49 51°16.279 2°53.132 5.4 359 13.8 101930 45
2010-09-02 04:46:53 51°16.292 2°53.121 6.3 360 13.8 101930 45
2010-09-02 04:46:59 51°16.31 2°53.105 5.8 357 13.8 101930 45
2010-09-02 04:47:03 51°16.323 2°53.094 6.4 360 13.8 101920 46
2010-09-02 04:47:08 51°16.338 2°53.08 5.7 -999 13.8 101920 46
2010-09-02 04:47:13 51°16.353 2°53.066 6.2 359 13.8 101930 47
2010-09-02 04:47:18 51°16.369 2°53.052 5.5 3 13.9 101920 48
2010-09-02 04:47:23 51°16.384 2°53.039 6.1 -999 13.9 101920 48
2010-09-02 04:47:29 51°16.403 2°53.023 5.6 359 13.9 101920 48
2010-09-02 04:47:33 51°16.415 2°53.012 5.8 1 13.9 101920 46
2010-09-02 04:47:38 51°16.43 2°52.998 5.8 1 13.9 101920 46
2010-09-02 04:47:43 51°16.446 2°52.985 6.3 1 13.9 101920 46
2010-09-02 04:47:49 51°16.464 2°52.968 5.8 1 13.9 101920 46
2010-09-02 04:47:53 51°16.476 2°52.957 5.7 2 13.9 101930 46
2010-09-02 04:47:58 51°16.492 2°52.944 5.7 3 13.9 101930 46
2010-09-02 04:48:03 51°16.507 2°52.93 5.5 3 13.9 101930 46
2010-09-02 04:48:09 51°16.526 2°52.913 5.5 359 14 101930 47
2010-09-02 04:48:13 51°16.538 2°52.903 5 3 14 101930 47
2010-09-02 04:48:18 51°16.553 2°52.889 4.7 1 14 101930 47
2010-09-02 04:48:24 51°16.572 2°52.872 4.9 -999 14 101920 45
2010-09-02 04:48:29 51°16.587 2°52.859 4.8 1 14 101930 45
2010-09-02 04:48:33 51°16.599 2°52.848 5 359 14 101930 45
2010-09-02 04:48:39 51°16.618 2°52.832 5.6 357 14 101930 45
2010-09-02 04:48:43 51°16.63 2°52.821 6.5 -999 14 101930 45
2010-09-02 04:48:49 51°16.648 2°52.805 6.1 2 14 101930 45
2010-09-02 04:48:53 51°16.661 2°52.794 5.5 1 14 101930 45
2010-09-02 04:48:58 51°16.677 2°52.781 5.6 -999 14.1 101930 46
2010-09-02 04:49:03 51°16.692 2°52.768 6.2 1 14.1 101930 46
2010-09-02 04:49:09 51°16.712 2°52.753 6 360 14.1 101930 48
2010-09-02 04:49:13 51°16.724 2°52.743 5.5 2 14.1 101930 48
2010-09-02 04:49:18 51°16.74 2°52.731 6.2 358 14.1 101930 47
2010-09-02 04:49:23 51°16.757 2°52.72 5.7 357 14.1 101930 47
2010-09-02 04:49:28 51°16.773 2°52.708 6.2 358 14.1 101930 46
2010-09-02 04:49:33 51°16.79 2°52.698 5.8 1 14.1 101930 46
2010-09-02 04:49:38 51°16.806 2°52.688 6.2 359 14.1 101930 47
2010-09-02 04:49:43 51°16.823 2°52.678 6.5 359 14.1 101930 47
2010-09-02 04:49:49 51°16.843 2°52.666 6 358 14.1 101930 47
2010-09-02 04:49:53 51°16.857 2°52.659 6.3 357 14.1 101930 47
2010-09-02 04:49:58 51°16.874 2°52.65 6.6 355 14.1 101930 45
2010-09-02 04:50:03 51°16.892 2°52.641 7.1 356 14.1 101930 45
2010-09-02 04:50:08 51°16.909 2°52.634 6.9 356 14.2 101930 46
2010-09-02 04:50:13 51°16.926 2°52.625 6.7 355 14.2 101930 46
2010-09-02 04:50:18 51°16.944 2°52.617 6.7 355 14.2 101920 45
2010-09-02 04:50:24 51°16.965 2°52.608 7.6 353 14.2 101920 45
2010-09-02 04:50:29 51°16.982 2°52.6 7.9 358 14.2 101930 47
2010-09-02 04:50:33 51°16.996 2°52.594 6.6 358 14.2 101930 47
2010-09-02 04:50:38 51°17.014 2°52.586 6.3 356 14.2 101920 46
2010-09-02 04:50:43 51°17.031 2°52.578 6.2 358 14.2 101920 46
2010-09-02 04:50:49 51°17.052 2°52.569 6.9 357 14.2 101920 47
2010-09-02 04:50:53 51°17.066 2°52.562 6.8 355 14.2 101920 47
2010-09-02 04:50:58 51°17.083 2°52.554 7.2 357 14.2 101920 46
2010-09-02 04:51:03 51°17.1 2°52.546 7.3 355 14.2 101920 46
2010-09-02 04:51:09 51°17.121 2°52.537 7.2 358 14.2 101930 46
2010-09-02 04:51:13 51°17.135 2°52.531 6.5 358 14.2 101930 46
2010-09-02 04:51:17 51°17.149 2°52.524 6.5 358 14.2 101920 47
2010-09-02 04:51:23 51°17.17 2°52.515 6.5 358 14.2 101920 47
2010-09-02 04:51:28 51°17.188 2°52.506 6.8 358 14.2 101930 45
2010-09-02 04:51:33 51°17.205 2°52.498 6.7 356 14.2 101930 45
2010-09-02 04:51:38 51°17.223 2°52.49 6.3 356 14.2 101920 45
2010-09-02 04:51:43 51°17.24 2°52.482 7.2 355 14.2 101920 45
2010-09-02 04:51:48 51°17.258 2°52.474 7.5 356 14.2 101920 45
2010-09-02 04:51:53 51°17.275 2°52.466 6.6 356 14.2 101920 45
2010-09-02 04:51:58 51°17.293 2°52.458 7.4 356 14.2 101920 45
2010-09-02 04:52:04 51°17.314 2°52.448 7 357 14.2 101920 45
2010-09-02 04:52:08 51°17.328 2°52.442 7.1 358 14.3 101930 47
2010-09-02 04:52:13 51°17.346 2°52.434 6.4 357 14.3 101930 47
2010-09-02 04:52:18 51°17.364 2°52.426 6.5 356 14.3 101920 46
2010-09-02 04:52:23 51°17.381 2°52.417 7 356 14.3 101920 46
2010-09-02 04:52:29 51°17.402 2°52.408 6.8 356 14.3 101920 45
2010-09-02 04:52:33 51°17.416 2°52.401 7 355 14.3 101920 45
2010-09-02 04:52:38 51°17.434 2°52.395 7.1 356 14.3 101930 46
2010-09-02 04:52:43 51°17.452 2°52.387 6.9 357 14.3 101930 46
2010-09-02 04:52:49 51°17.473 2°52.38 6.7 355 14.3 101920 45
2010-09-02 04:52:53 51°17.488 2°52.376 7.3 356 14.3 101920 45
2010-09-02 04:52:58 51°17.506 2°52.37 7.1 358 14.3 101930 45
2010-09-02 04:53:03 51°17.524 2°52.366 7.1 356 14.3 101930 45
2010-09-02 04:53:09 51°17.546 2°52.361 7.8 356 14.3 101920 47
2010-09-02 04:53:13 51°17.561 2°52.358 7.3 354 14.3 101920 47
2010-09-02 04:53:18 51°17.579 2°52.353 7.6 356 14.3 101920 45
2010-09-02 04:53:23 51°17.597 2°52.35 7.6 356 14.3 101920 45
2010-09-02 04:53:28 51°17.616 2°52.347 7.2 354 14.3 101930 45
2010-09-02 04:53:33 51°17.634 2°52.345 8.4 355 14.3 101930 45
2010-09-02 04:53:38 51°17.653 2°52.344 8.5 354 14.4 101920 45
2010-09-02 04:53:43 51°17.671 2°52.343 8.4 355 14.4 101920 45
2010-09-02 04:53:49 51°17.693 2°52.343 7.4 355 14.4 101920 46
2010-09-02 04:53:53 51°17.708 2°52.344 7.5 355 14.4 101920 46
2010-09-02 04:53:58 51°17.727 2°52.345 7.6 354 14.4 101920 47
2010-09-02 04:54:03 51°17.745 2°52.346 7.6 355 14.4 101920 47
2010-09-02 04:54:08 51°17.764 2°52.348 7.8 350 14.3 101910 47
2010-09-02 04:54:13 51°17.783 2°52.35 8.3 353 14.3 101910 47
2010-09-02 04:54:18 51°17.802 2°52.352 8.4 351 14.3 101920 44
2010-09-02 04:54:23 51°17.82 2°52.354 8.2 279 14.3 101920 44
2010-09-02 04:54:29 51°17.842 2°52.359 8.1 350 14.4 101920 45
2010-09-02 04:54:33 51°17.857 2°52.362 8.8 350 14.4 101920 45
2010-09-02 04:54:38 51°17.875 2°52.367 9 350 14.4 101920 47
2010-09-02 04:54:43 51°17.894 2°52.372 9.4 353 14.4 101920 47
2010-09-02 04:54:49 51°17.916 2°52.381 8.7 348 14.4 101920 46
2010-09-02 04:54:53 51°17.931 2°52.385 9.4 347 14.4 101920 46
2010-09-02 04:54:58 51°17.949 2°52.395 10.1 348 14.4 101920 45
2010-09-02 04:55:03 51°17.966 2°52.403 9.7 348 14.4 101920 45
2010-09-02 04:55:09 51°17.987 2°52.416 8.7 349 14.4 101910 44
2010-09-02 04:55:13 51°18.001 2°52.423 8.8 280 14.4 101910 44
2010-09-02 04:55:17 51°18.014 2°52.432 9.1 348 14.4 101920 45
2010-09-02 04:55:23 51°18.035 2°52.447 9.3 282 14.4 101920 45
2010-09-02 04:55:28 51°18.053 2°52.46 9.4 348 14.3 101920 45
2010-09-02 04:55:33 51°18.069 2°52.473 9.4 280 14.3 101920 45
2010-09-02 04:55:38 51°18.086 2°52.486 10.2 347 14.4 101920 45
2010-09-02 04:55:43 51°18.103 2°52.499 9.9 280 14.4 101920 45
2010-09-02 04:55:48 51°18.119 2°52.513 10.3 347 14.3 101910 45
2010-09-02 04:55:53 51°18.136 2°52.528 9.9 283 14.3 101910 45
2010-09-02 04:55:58 51°18.152 2°52.542 10 347 14.4 101920 47
2010-09-02 04:56:04 51°18.171 2°52.562 9.9 284 14.4 101920 47
2010-09-02 04:56:08 51°18.183 2°52.575 10.5 346 14.4 101920 44
2010-09-02 04:56:13 51°18.198 2°52.594 9.4 285 14.4 101920 44
2010-09-02 04:56:18 51°18.213 2°52.611 10.2 346 14.4 101910 45
2010-09-02 04:56:23 51°18.227 2°52.631 9.9 281 14.4 101910 45
2010-09-02 04:56:29 51°18.244 2°52.653 10.2 345 14.4 101920 44
2010-09-02 04:56:33 51°18.256 2°52.669 10 284 14.4 101920 44
2010-09-02 04:56:38 51°18.27 2°52.689 11.2 343 14.3 101910 45
2010-09-02 04:56:43 51°18.284 2°52.709 9.5 279 14.3 101910 45
2010-09-02 04:56:48 51°18.297 2°52.729 10.7 344 14.4 101910 44
2010-09-02 04:56:53 51°18.312 2°52.749 10.5 284 14.4 101910 44
2010-09-02 04:56:58 51°18.326 2°52.769 10.7 344 14.4 101920 44
2010-09-02 04:57:03 51°18.34 2°52.788 9.7 279 14.4 101920 44
2010-09-02 04:57:09 51°18.357 2°52.81 10.5 345 14.4 101920 45
2010-09-02 04:57:13 51°18.369 2°52.825 9.8 284 14.4 101920 45
2010-09-02 04:57:18 51°18.383 2°52.844 9.9 345 14.4 101910 45
2010-09-02 04:57:23 51°18.398 2°52.862 10 285 14.4 101910 45
2010-09-02 04:57:29 51°18.416 2°52.884 10 343 14.4 101910 43
2010-09-02 04:57:33 51°18.428 2°52.899 10 283 14.4 101910 43
2010-09-02 04:57:38 51°18.443 2°52.917 9.4 345 14.4 101910 44
2010-09-02 04:57:43 51°18.458 2°52.935 9.9 283 14.4 101910 44
2010-09-02 04:57:48 51°18.472 2°52.953 10.6 346 14.4 101910 45
2010-09-02 04:57:53 51°18.487 2°52.971 10.1 285 14.4 101910 45
2010-09-02 04:57:58 51°18.502 2°52.989 9.7 346 14.4 101910 45
2010-09-02 04:58:03 51°18.517 2°53.007 10.4 281 14.4 101910 45
2010-09-02 04:58:08 51°18.532 2°53.025 9.7 347 14.4 101920 45
2010-09-02 04:58:13 51°18.546 2°53.042 9 348 14.4 101920 45
2010-09-02 04:58:18 51°18.561 2°53.06 9.7 345 14.4 101910 45
2010-09-02 04:58:23 51°18.576 2°53.078 9.8 277 14.4 101910 45
2010-09-02 04:58:29 51°18.594 2°53.099 9.7 345 14.4 101920 45
2010-09-02 04:58:33 51°18.606 2°53.113 10.1 279 14.4 101920 45
2010-09-02 04:58:38 51°18.621 2°53.131 9.7 344 14.4 101910 44
2010-09-02 04:58:43 51°18.636 2°53.148 10.6 344 14.4 101910 44
2010-09-02 04:58:48 51°18.651 2°53.166 10.3 344 14.4 101910 44
2010-09-02 04:58:53 51°18.666 2°53.184 10 279 14.4 101910 44
2010-09-02 04:58:58 51°18.681 2°53.201 10.6 346 14.5 101920 44
2010-09-02 04:59:03 51°18.696 2°53.219 10.1 280 14.5 101920 44
2010-09-02 04:59:09 51°18.714 2°53.239 10.1 344 14.5 101910 45
2010-09-02 04:59:13 51°18.726 2°53.254 9.5 283 14.5 101910 45
2010-09-02 04:59:18 51°18.741 2°53.271 8.6 345 14.5 101910 44
2010-09-02 04:59:23 51°18.755 2°53.29 9.5 277 14.5 101910 44
2010-09-02 04:59:29 51°18.774 2°53.312 9.3 343 14.6 101910 45
2010-09-02 04:59:33 51°18.785 2°53.327 9.5 284 14.6 101910 45
2010-09-02 04:59:38 51°18.8 2°53.345 10.1 343 14.6 101920 43
2010-09-02 04:59:43 51°18.815 2°53.363 9.6 282 14.6 101920 43
2010-09-02 04:59:49 51°18.832 2°53.385 10 344 14.6 101910 44
2010-09-02 04:59:53 51°18.844 2°53.4 9.5 283 14.6 101910 44
2010-09-02 04:59:58 51°18.859 2°53.418 9.7 345 14.6 101920 44
2010-09-02 05:00:03 51°18.873 2°53.436 10.4 284 14.6 101920 44
2010-09-02 05:00:09 51°18.891 2°53.458 9 345 14.5 101920 44
2010-09-02 05:00:13 51°18.903 2°53.472 9.9 344 14.5 101920 44
2010-09-02 05:00:18 51°18.918 2°53.49 10 345 14.5 101910 44
2010-09-02 05:00:23 51°18.933 2°53.509 9.1 347 14.5 101910 44
2010-09-02 05:00:29 51°18.951 2°53.53 10.2 346 14.5 101910 45
2010-09-02 05:00:33 51°18.962 2°53.545 9.4 346 14.5 101910 45
2010-09-02 05:00:38 51°18.977 2°53.564 9.5 343 14.5 101910 45
2010-09-02 05:00:43 51°18.992 2°53.582 9.2 279 14.5 101910 45
2010-09-02 05:00:48 51°19.006 2°53.6 10.1 344 14.5 101910 44
2010-09-02 05:00:53 51°19.021 2°53.618 10.2 279 14.5 101910 44
2010-09-02 05:00:58 51°19.036 2°53.636 10.4 345 14.5 101920 44
2010-09-02 05:01:03 51°19.051 2°53.654 9.3 282 14.5 101920 44
2010-09-02 05:01:09 51°19.069 2°53.676 9.6 347 14.6 101920 45
2010-09-02 05:01:13 51°19.081 2°53.69 9.1 278 14.6 101920 45
2010-09-02 05:01:18 51°19.096 2°53.709 9.9 346 14.6 101910 44
2010-09-02 05:01:23 51°19.111 2°53.727 9.1 283 14.6 101910 44
2010-09-02 05:01:29 51°19.128 2°53.748 9 344 14.5 101920 43
2010-09-02 05:01:33 51°19.14 2°53.763 9.2 281 14.5 101920 43
2010-09-02 05:01:38 51°19.155 2°53.781 10 343 14.5 101920 43
2010-09-02 05:01:43 51°19.17 2°53.799 10 277 14.5 101920 43
2010-09-02 05:01:49 51°19.188 2°53.82 10.5 346 14.6 101920 45
2010-09-02 05:01:53 51°19.2 2°53.835 9.6 277 14.6 101920 45
2010-09-02 05:01:57 51°19.212 2°53.849 9.5 346 14.6 101920 44
2010-09-02 05:02:03 51°19.23 2°53.871 9.6 345 14.6 101920 44
2010-09-02 05:02:08 51°19.245 2°53.888 9.1 347 14.6 101910 44
2010-09-02 05:02:13 51°19.26 2°53.907 9.5 281 14.6 101910 44
2010-09-02 05:02:18 51°19.275 2°53.925 9.4 344 14.6 101920 44
2010-09-02 05:02:23 51°19.289 2°53.943 9.3 279 14.6 101920 44
2010-09-02 05:02:28 51°19.304 2°53.961 9.6 345 14.6 101910 44
2010-09-02 05:02:33 51°19.319 2°53.979 10.3 283 14.6 101910 44
2010-09-02 05:02:38 51°19.334 2°53.997 9.5 345 14.6 101910 45
2010-09-02 05:02:44 51°19.351 2°54.019 9.8 283 14.6 101910 45
2010-09-02 05:02:48 51°19.363 2°54.033 9.4 345 14.6 101920 44
2010-09-02 05:02:53 51°19.378 2°54.051 10.1 281 14.6 101920 44
2010-09-02 05:02:58 51°19.393 2°54.069 8.9 345 14.6 101910 44
2010-09-02 05:03:03 51°19.408 2°54.086 8.7 284 14.6 101910 44
2010-09-02 05:03:09 51°19.426 2°54.108 8.8 343 14.6 101920 45
2010-09-02 05:03:13 51°19.437 2°54.122 9.5 281 14.6 101920 45
2010-09-02 05:03:18 51°19.452 2°54.141 10.1 344 14.6 101910 43
2010-09-02 05:03:23 51°19.467 2°54.159 9.9 279 14.6 101910 43
2010-09-02 05:03:28 51°19.482 2°54.177 8.8 345 14.6 101920 45
2010-09-02 05:03:33 51°19.496 2°54.195 9.3 279 14.6 101920 45
2010-09-02 05:03:38 51°19.511 2°54.214 10.4 344 14.7 101920 45
2010-09-02 05:03:43 51°19.526 2°54.231 9.2 280 14.7 101920 45
2010-09-02 05:03:49 51°19.544 2°54.253 9.7 344 14.7 101920 46
2010-09-02 05:03:53 51°19.556 2°54.267 9.7 281 14.7 101920 46
2010-09-02 05:03:58 51°19.57 2°54.286 10.3 343 14.7 101920 44
2010-09-02 05:04:03 51°19.585 2°54.304 10.7 282 14.7 101920 44
2010-09-02 05:04:09 51°19.602 2°54.325 10.8 343 14.7 101920 45
2010-09-02 05:04:13 51°19.614 2°54.34 9.9 282 14.7 101920 45
2010-09-02 05:04:18 51°19.629 2°54.358 8.5 344 14.8 101920 44
2010-09-02 05:04:23 51°19.644 2°54.376 9.7 280 14.8 101920 44
2010-09-02 05:04:29 51°19.661 2°54.398 10.5 344 14.7 101920 44
2010-09-02 05:04:33 51°19.673 2°54.412 9.6 284 14.7 101920 44
2010-09-02 05:04:38 51°19.688 2°54.431 9.6 343 14.7 101920 44
2010-09-02 05:04:43 51°19.703 2°54.449 10 284 14.7 101920 44
2010-09-02 05:04:48 51°19.717 2°54.467 9.7 344 14.7 101910 45
2010-09-02 05:04:53 51°19.732 2°54.485 9.6 281 14.7 101910 45
2010-09-02 05:04:58 51°19.746 2°54.503 10 346 14.7 101920 43
2010-09-02 05:05:03 51°19.761 2°54.521 9.5 282 14.7 101920 43
2010-09-02 05:05:09 51°19.779 2°54.543 9.6 345 14.7 101920 45
2010-09-02 05:05:13 51°19.791 2°54.557 9.5 279 14.7 101920 45
2010-09-02 05:05:18 51°19.806 2°54.575 9.5 344 14.7 101910 44
2010-09-02 05:05:23 51°19.82 2°54.593 9.7 281 14.7 101910 44
2010-09-02 05:05:28 51°19.835 2°54.611 9.7 342 14.7 101920 46
2010-09-02 05:05:33 51°19.85 2°54.63 9.3 284 14.7 101920 46
2010-09-02 05:05:38 51°19.865 2°54.648 9.9 343 14.8 101910 45
2010-09-02 05:05:43 51°19.879 2°54.666 10.4 284 14.8 101910 45
2010-09-02 05:05:49 51°19.897 2°54.688 10.2 342 14.8 101920 45
2010-09-02 05:05:53 51°19.909 2°54.702 10 283 14.8 101920 45
2010-09-02 05:05:58 51°19.923 2°54.72 8.7 344 14.7 101920 45
2010-09-02 05:06:03 51°19.938 2°54.739 9.6 284 14.7 101920 45
2010-09-02 05:06:09 51°19.956 2°54.76 9.9 344 14.8 101920 44
2010-09-02 05:06:13 51°19.968 2°54.775 10.1 284 14.8 101920 44
2010-09-02 05:06:18 51°19.982 2°54.793 9.9 345 14.7 101920 44
2010-09-02 05:06:23 51°19.997 2°54.811 9.7 284 14.7 101920 44
2010-09-02 05:06:29 51°20.014 2°54.833 9.2 342 14.7 101920 45
2010-09-02 05:06:33 51°20.026 2°54.848 9.5 280 14.7 101920 45
2010-09-02 05:06:37 51°20.038 2°54.862 10.5 343 14.7 101920 44
2010-09-02 05:06:43 51°20.056 2°54.884 8.8 279 14.7 101920 44
2010-09-02 05:06:48 51°20.07 2°54.902 9.4 345 14.7 101920 45
2010-09-02 05:06:53 51°20.085 2°54.92 9.7 282 14.7 101920 45
2010-09-02 05:06:58 51°20.1 2°54.938 9.9 344 14.7 101910 46
2010-09-02 05:07:03 51°20.115 2°54.956 9.2 280 14.7 101910 46
2010-09-02 05:07:08 51°20.129 2°54.974 9.8 345 14.8 101920 46
2010-09-02 05:07:13 51°20.144 2°54.992 9.5 283 14.8 101920 46
2010-09-02 05:07:18 51°20.159 2°55.01 9.6 346 14.8 101920 44
2010-09-02 05:07:24 51°20.176 2°55.032 9.3 -999 14.8 101920 44
2010-09-02 05:07:28 51°20.188 2°55.046 10.2 344 14.8 101930 44
2010-09-02 05:07:33 51°20.203 2°55.064 8.9 284 14.8 101930 44
2010-09-02 05:07:37 51°20.215 2°55.079 10.5 344 14.7 101910 43
2010-09-02 05:07:43 51°20.233 2°55.101 10.4 282 14.7 101910 43
2010-09-02 05:07:48 51°20.247 2°55.119 10 344 14.7 101920 45
2010-09-02 05:07:53 51°20.262 2°55.137 10.2 281 14.7 101920 45
2010-09-02 05:07:58 51°20.276 2°55.155 10.4 344 14.7 101920 46
2010-09-02 05:08:03 51°20.291 2°55.173 9.8 281 14.7 101920 46
2010-09-02 05:08:09 51°20.309 2°55.195 9.2 345 14.7 101920 45
2010-09-02 05:08:13 51°20.32 2°55.21 9.4 284 14.7 101920 45
2010-09-02 05:08:18 51°20.335 2°55.228 8.8 345 14.7 101920 44
2010-09-02 05:08:23 51°20.35 2°55.246 8.8 280 14.7 101920 44
2010-09-02 05:08:29 51°20.368 2°55.267 10.5 343 14.7 101910 44
2010-09-02 05:08:33 51°20.38 2°55.282 10.3 279 14.7 101910 44
2010-09-02 05:08:38 51°20.395 2°55.3 9.7 344 14.7 101920 44
2010-09-02 05:08:43 51°20.41 2°55.318 9.2 282 14.7 101920 44
2010-09-02 05:08:49 51°20.428 2°55.34 9 345 14.7 101920 46
2010-09-02 05:08:53 51°20.439 2°55.354 9.4 283 14.7 101920 46
2010-09-02 05:08:58 51°20.454 2°55.372 8.8 345 14.7 101920 46
2010-09-02 05:09:03 51°20.469 2°55.391 9 279 14.7 101920 46
2010-09-02 05:09:09 51°20.487 2°55.412 8.7 345 14.7 101920 44
2010-09-02 05:09:13 51°20.499 2°55.427 8.9 279 14.7 101920 44
2010-09-02 05:09:18 51°20.514 2°55.445 9.7 342 14.7 101920 44
2010-09-02 05:09:23 51°20.529 2°55.463 9.1 283 14.7 101920 44
2010-09-02 05:09:29 51°20.546 2°55.485 10.1 344 14.7 101920 44
2010-09-02 05:09:33 51°20.558 2°55.5 9.5 279 14.7 101920 44
2010-09-02 05:09:38 51°20.573 2°55.518 9.6 343 14.8 101920 45
2010-09-02 05:09:43 51°20.588 2°55.536 10.1 283 14.8 101920 45
2010-09-02 05:09:48 51°20.602 2°55.554 9.6 343 14.7 101920 46
2010-09-02 05:09:53 51°20.617 2°55.572 9.7 284 14.7 101920 46
2010-09-02 05:09:58 51°20.632 2°55.59 9.6 343 14.8 101910 45
2010-09-02 05:10:04 51°20.65 2°55.612 9.2 283 14.8 101910 45
2010-09-02 05:10:08 51°20.662 2°55.627 9.3 344 14.8 101920 46
2010-09-02 05:10:13 51°20.677 2°55.645 9.1 278 14.8 101920 46
2010-09-02 05:10:18 51°20.691 2°55.663 9.2 346 14.7 101920 43
2010-09-02 05:10:23 51°20.706 2°55.681 9 282 14.7 101920 43
2010-09-02 05:10:28 51°20.721 2°55.699 9.6 344 14.7 101920 44
2010-09-02 05:10:33 51°20.736 2°55.717 9.6 282 14.7 101920 44
2010-09-02 05:10:38 51°20.751 2°55.735 9.2 342 14.7 101920 45
2010-09-02 05:10:44 51°20.769 2°55.757 9.6 281 14.7 101920 45
2010-09-02 05:10:49 51°20.783 2°55.776 9.3 343 14.7 101920 45
2010-09-02 05:10:53 51°20.795 2°55.79 9.4 279 14.7 101920 45
2010-09-02 05:10:57 51°20.807 2°55.804 9.7 341 14.7 101920 46
2010-09-02 05:11:03 51°20.825 2°55.826 10.1 283 14.7 101920 46
2010-09-02 05:11:08 51°20.839 2°55.844 9.7 344 14.8 101920 45
2010-09-02 05:11:13 51°20.854 2°55.862 9.3 283 14.8 101920 45
2010-09-02 05:11:18 51°20.869 2°55.881 9 344 14.8 101920 46
2010-09-02 05:11:23 51°20.884 2°55.898 8.9 278 14.8 101920 46
2010-09-02 05:11:29 51°20.902 2°55.92 9.5 343 14.8 101910 44
2010-09-02 05:11:33 51°20.914 2°55.935 9.3 283 14.8 101910 44
2010-09-02 05:11:38 51°20.928 2°55.953 9.9 344 14.7 101920 46
2010-09-02 05:11:43 51°20.943 2°55.971 9.7 344 14.7 101920 46
2010-09-02 05:11:48 51°20.958 2°55.99 9.2 344 14.7 101920 45
2010-09-02 05:11:53 51°20.973 2°56.008 9.1 285 14.7 101920 45
2010-09-02 05:11:57 51°20.985 2°56.023 9.1 344 14.8 101920 45
2010-09-02 05:12:03 51°21.003 2°56.044 9.5 284 14.8 101920 45
2010-09-02 05:12:08 51°21.017 2°56.063 8.8 343 14.8 101920 46
2010-09-02 05:12:13 51°21.032 2°56.081 9.2 283 14.8 101920 46
2010-09-02 05:12:18 51°21.047 2°56.099 8.6 343 14.7 101920 44
2010-09-02 05:12:23 51°21.062 2°56.117 9 282 14.7 101920 44
2010-09-02 05:12:29 51°21.08 2°56.139 10.6 344 14.7 101920 45
2010-09-02 05:12:33 51°21.092 2°56.154 9.8 277 14.7 101920 45
2010-09-02 05:12:38 51°21.106 2°56.172 9.2 344 14.7 101920 46
2010-09-02 05:12:44 51°21.125 2°56.194 9.6 279 14.7 101920 46
2010-09-02 05:12:48 51°21.136 2°56.208 9.1 345 14.7 101920 45
2010-09-02 05:12:53 51°21.151 2°56.226 9.7 284 14.7 101920 45
2010-09-02 05:12:58 51°21.166 2°56.245 9.5 345 14.8 101920 43
2010-09-02 05:13:04 51°21.183 2°56.267 8.7 284 14.8 101920 43
2010-09-02 05:13:09 51°21.198 2°56.285 9.5 343 14.7 101920 45
2010-09-02 05:13:13 51°21.21 2°56.3 9.2 277 14.7 101920 45
2010-09-02 05:13:18 51°21.225 2°56.318 9.3 344 14.7 101920 44
2010-09-02 05:13:23 51°21.24 2°56.336 9.9 -999 14.7 101920 44
2010-09-02 05:13:29 51°21.258 2°56.358 9.6 344 14.7 101920 45
2010-09-02 05:13:33 51°21.27 2°56.372 9.8 284 14.7 101920 45
2010-09-02 05:13:38 51°21.285 2°56.39 9.3 344 14.7 101920 45
2010-09-02 05:13:43 51°21.3 2°56.409 9.1 281 14.7 101920 45
2010-09-02 05:13:48 51°21.315 2°56.427 9.4 341 14.7 101920 45
2010-09-02 05:13:53 51°21.33 2°56.445 9.9 283 14.7 101920 45
2010-09-02 05:13:58 51°21.344 2°56.463 9.3 341 14.7 101920 46
2010-09-02 05:14:03 51°21.359 2°56.482 9.4 286 14.7 101920 46
2010-09-02 05:14:08 51°21.374 2°56.499 9.1 344 14.8 101920 45
2010-09-02 05:14:13 51°21.389 2°56.518 10.1 277 14.8 101920 45
2010-09-02 05:14:18 51°21.404 2°56.537 9.4 341 14.8 101920 46
2010-09-02 05:14:23 51°21.419 2°56.554 9.9 284 14.8 101920 46
2010-09-02 05:14:29 51°21.437 2°56.576 10.3 341 14.8 101930 45
2010-09-02 05:14:33 51°21.448 2°56.59 10.4 279 14.8 101930 45
2010-09-02 05:14:38 51°21.464 2°56.609 10.3 343 14.8 101920 45
2010-09-02 05:14:43 51°21.478 2°56.627 8.7 284 14.8 101920 45
2010-09-02 05:14:48 51°21.493 2°56.646 10.1 343 14.8 101920 45
2010-09-02 05:14:53 51°21.508 2°56.664 9.5 282 14.8 101920 45
2010-09-02 05:14:58 51°21.523 2°56.682 9.9 342 14.8 101920 44
2010-09-02 05:15:03 51°21.538 2°56.7 9.6 277 14.8 101920 44
2010-09-02 05:15:09 51°21.556 2°56.722 9.1 342 14.8 101920 46
2010-09-02 05:15:13 51°21.568 2°56.737 8.8 284 14.8 101920 46
2010-09-02 05:15:18 51°21.583 2°56.755 9.1 343 14.8 101930 46
2010-09-02 05:15:23 51°21.598 2°56.774 9.8 281 14.8 101930 46
2010-09-02 05:15:29 51°21.616 2°56.795 9.5 343 14.8 101920 45
2010-09-02 05:15:33 51°21.628 2°56.81 9.8 285 14.8 101920 45
2010-09-02 05:15:38 51°21.643 2°56.828 8.9 343 14.8 101930 45
2010-09-02 05:15:43 51°21.658 2°56.846 9 282 14.8 101930 45
2010-09-02 05:15:48 51°21.673 2°56.865 9 343 14.8 101930 46
2010-09-02 05:15:53 51°21.688 2°56.883 9.2 284 14.8 101930 46
2010-09-02 05:15:58 51°21.704 2°56.901 8.9 342 14.9 101920 45
2010-09-02 05:16:03 51°21.719 2°56.919 9.3 283 14.9 101920 45
2010-09-02 05:16:08 51°21.733 2°56.938 10.2 343 14.9 101930 46
2010-09-02 05:16:13 51°21.748 2°56.956 9.1 282 14.9 101930 46
2010-09-02 05:16:18 51°21.763 2°56.974 8.8 340 14.9 101920 44
2010-09-02 05:16:23 51°21.779 2°56.993 9.5 283 14.9 101920 44
2010-09-02 05:16:29 51°21.797 2°57.014 9.6 342 14.9 101920 46
2010-09-02 05:16:33 51°21.809 2°57.029 9.8 284 14.9 101920 46
2010-09-02 05:16:37 51°21.821 2°57.044 10 342 14.9 101930 45
2010-09-02 05:16:43 51°21.839 2°57.066 9.6 281 14.9 101930 45
2010-09-02 05:16:48 51°21.854 2°57.084 9.6 343 14.8 101920 45
2010-09-02 05:16:53 51°21.869 2°57.103 9.2 283 14.8 101920 45
2010-09-02 05:16:58 51°21.884 2°57.121 9.7 343 14.8 101920 46
2010-09-02 05:17:03 51°21.899 2°57.139 9.4 280 14.8 101920 46
2010-09-02 05:17:09 51°21.918 2°57.161 8.8 342 14.8 101920 45
2010-09-02 05:17:13 51°21.929 2°57.176 9.3 285 14.8 101920 45
2010-09-02 05:17:18 51°21.944 2°57.194 9.5 342 14.8 101930 45
2010-09-02 05:17:24 51°21.963 2°57.216 9.3 280 14.8 101930 45
2010-09-02 05:17:28 51°21.975 2°57.231 8.7 343 14.8 101930 45
2010-09-02 05:17:33 51°21.99 2°57.249 9.4 284 14.8 101930 45
2010-09-02 05:17:37 51°22.002 2°57.264 8.7 344 14.8 101930 46
2010-09-02 05:17:43 51°22.02 2°57.286 8.9 283 14.8 101930 46
2010-09-02 05:17:48 51°22.035 2°57.304 8.8 342 14.8 101930 46
2010-09-02 05:17:53 51°22.05 2°57.322 10.4 284 14.8 101930 46
2010-09-02 05:17:58 51°22.065 2°57.341 9.5 344 14.8 101930 46
2010-09-02 05:18:03 51°22.08 2°57.359 8.8 282 14.8 101930 46
2010-09-02 05:18:09 51°22.099 2°57.381 10.1 340 14.8 101930 45
2010-09-02 05:18:13 51°22.111 2°57.396 10.3 284 14.8 101930 45
2010-09-02 05:18:18 51°22.126 2°57.414 9.4 342 14.8 101920 44
2010-09-02 05:18:23 51°22.141 2°57.432 9.7 284 14.8 101920 44
2010-09-02 05:18:28 51°22.156 2°57.451 9.3 343 14.8 101930 45
2010-09-02 05:18:33 51°22.171 2°57.469 9.1 279 14.8 101930 45
2010-09-02 05:18:38 51°22.186 2°57.488 9.3 342 14.9 101920 45
2010-09-02 05:18:43 51°22.201 2°57.506 9.3 283 14.9 101920 45
2010-09-02 05:18:49 51°22.219 2°57.528 9.5 342 14.8 101930 46
2010-09-02 05:18:53 51°22.231 2°57.542 8.7 283 14.8 101930 46
2010-09-02 05:18:58 51°22.246 2°57.561 9.5 343 14.9 101930 45
2010-09-02 05:19:03 51°22.262 2°57.579 10 283 14.9 101930 45
2010-09-02 05:19:08 51°22.276 2°57.597 8.9 344 14.8 101930 45
2010-09-02 05:19:13 51°22.292 2°57.616 9.6 283 14.8 101930 45
2010-09-02 05:19:18 51°22.307 2°57.634 9.3 343 14.8 101930 46
2010-09-02 05:19:23 51°22.322 2°57.652 9.7 278 14.8 101930 46
2010-09-02 05:19:29 51°22.34 2°57.675 9.1 342 14.8 101930 45
2010-09-02 05:19:33 51°22.352 2°57.689 9.5 280 14.8 101930 45
2010-09-02 05:19:38 51°22.367 2°57.708 8.9 340 14.8 101930 46
2010-09-02 05:19:43 51°22.382 2°57.727 9.8 283 14.8 101930 46
2010-09-02 05:19:49 51°22.4 2°57.749 8.9 341 14.8 101930 45
2010-09-02 05:19:53 51°22.412 2°57.764 10 282 14.8 101930 45
2010-09-02 05:19:58 51°22.427 2°57.783 8.8 342 14.9 101930 45
2010-09-02 05:20:03 51°22.442 2°57.801 10.1 281 14.9 101930 45
2010-09-02 05:20:09 51°22.461 2°57.823 9.3 343 14.9 101930 46
2010-09-02 05:20:13 51°22.473 2°57.838 9.6 283 14.9 101930 46
2010-09-02 05:20:18 51°22.488 2°57.857 9.9 342 14.9 101920 45
2010-09-02 05:20:23 51°22.503 2°57.875 9.3 283 14.9 101920 45
2010-09-02 05:20:28 51°22.517 2°57.894 10.4 340 14.9 101930 45
2010-09-02 05:20:33 51°22.532 2°57.913 9.5 284 14.9 101930 45
2010-09-02 05:20:38 51°22.547 2°57.933 9.5 338 14.9 101930 45
2010-09-02 05:20:43 51°22.561 2°57.953 9.3 281 14.9 101930 45
2010-09-02 05:20:49 51°22.578 2°57.977 9.9 339 15 101930 45
2010-09-02 05:20:53 51°22.589 2°57.993 9.6 283 15 101930 45
2010-09-02 05:20:57 51°22.6 2°58.01 10.7 339 15 101930 44
2010-09-02 05:21:03 51°22.616 2°58.035 9.5 284 15 101930 44
2010-09-02 05:21:08 51°22.63 2°58.057 10.2 340 14.9 101930 46
2010-09-02 05:21:13 51°22.643 2°58.078 10.9 282 14.9 101930 46
2010-09-02 05:21:18 51°22.656 2°58.101 9.9 340 14.9 101930 45
2010-09-02 05:21:23 51°22.668 2°58.123 9 283 14.9 101930 45
2010-09-02 05:21:29 51°22.684 2°58.15 9.3 343 14.9 101920 46
2010-09-02 05:21:33 51°22.694 2°58.169 9.6 279 14.9 101920 46
2010-09-02 05:21:38 51°22.707 2°58.19 10.7 341 14.9 101920 45
2010-09-02 05:21:44 51°22.722 2°58.218 9.3 281 14.9 101920 45
2010-09-02 05:21:48 51°22.732 2°58.236 8.9 341 14.9 101930 45
2010-09-02 05:21:53 51°22.745 2°58.259 9.2 283 14.9 101930 45
2010-09-02 05:21:58 51°22.758 2°58.282 8.9 340 14.9 101930 45
2010-09-02 05:22:03 51°22.771 2°58.305 9.6 279 14.9 101930 45
2010-09-02 05:22:09 51°22.786 2°58.332 10.8 342 14.9 101930 46
2010-09-02 05:22:13 51°22.796 2°58.351 10.5 284 14.9 101930 46
2010-09-02 05:22:18 51°22.809 2°58.373 10.5 340 14.9 101930 45
2010-09-02 05:22:23 51°22.821 2°58.396 9.9 -999 14.9 101930 45
2010-09-02 05:22:28 51°22.834 2°58.418 10.4 340 14.9 101930 45
2010-09-02 05:22:33 51°22.847 2°58.441 11.5 282 14.9 101930 45
2010-09-02 05:22:38 51°22.86 2°58.464 10.4 339 14.9 101940 45
2010-09-02 05:22:43 51°22.872 2°58.486 11.7 278 14.9 101940 45
2010-09-02 05:22:48 51°22.884 2°58.51 10.1 339 14.9 101920 46
2010-09-02 05:22:53 51°22.896 2°58.534 10.3 285 14.9 101920 46
2010-09-02 05:22:58 51°22.907 2°58.558 9.8 339 14.9 101930 46
2010-09-02 05:23:03 51°22.919 2°58.581 9.7 285 14.9 101930 46
2010-09-02 05:23:08 51°22.93 2°58.606 10.4 338 14.9 101920 46
2010-09-02 05:23:13 51°22.941 2°58.63 9.2 282 14.9 101920 46
2010-09-02 05:23:18 51°22.952 2°58.655 9.2 338 14.9 101930 45
2010-09-02 05:23:23 51°22.963 2°58.68 9.8 282 14.9 101930 45
2010-09-02 05:23:29 51°22.977 2°58.709 9.7 338 14.8 101930 46
2010-09-02 05:23:33 51°22.985 2°58.729 9.2 283 14.8 101930 46
2010-09-02 05:23:38 51°22.996 2°58.755 9.5 337 14.8 101930 45
2010-09-02 05:23:43 51°23.007 2°58.78 10.4 286 14.8 101930 45
2010-09-02 05:23:48 51°23.017 2°58.805 9.4 337 14.8 101930 44
2010-09-02 05:23:53 51°23.027 2°58.831 10.5 281 14.8 101930 44
2010-09-02 05:23:58 51°23.037 2°58.857 9.5 335 14.9 101940 46
2010-09-02 05:24:03 51°23.048 2°58.882 10 281 14.9 101940 46
2010-09-02 05:24:09 51°23.06 2°58.914 10.1 335 14.8 101930 45
2010-09-02 05:24:13 51°23.068 2°58.934 10 278 14.8 101930 45
2010-09-02 05:24:18 51°23.078 2°58.96 9.2 340 14.8 101940 45
2010-09-02 05:24:23 51°23.088 2°58.986 9.5 283 14.8 101940 45
2010-09-02 05:24:29 51°23.1 2°59.017 10 340 14.9 101930 46
2010-09-02 05:24:33 51°23.108 2°59.037 10.2 285 14.9 101930 46
2010-09-02 05:24:38 51°23.118 2°59.063 10.8 339 14.9 101930 45
2010-09-02 05:24:43 51°23.129 2°59.088 11 280 14.9 101930 45
2010-09-02 05:24:49 51°23.142 2°59.119 9.5 339 14.9 101930 46
2010-09-02 05:24:53 51°23.15 2°59.139 10 283 14.9 101930 46
2010-09-02 05:24:58 51°23.161 2°59.164 9.3 338 14.9 101930 45
2010-09-02 05:25:03 51°23.172 2°59.189 9.9 283 14.9 101930 45
2010-09-02 05:25:08 51°23.183 2°59.214 11.1 339 14.9 101930 45
2010-09-02 05:25:13 51°23.193 2°59.239 10.3 280 14.9 101930 45
2010-09-02 05:25:18 51°23.205 2°59.264 10.8 339 14.8 101930 45
2010-09-02 05:25:23 51°23.215 2°59.289 10.2 277 14.8 101930 45
2010-09-02 05:25:29 51°23.229 2°59.319 9.7 339 14.9 101930 44
2010-09-02 05:25:33 51°23.237 2°59.339 9.8 277 14.9 101930 44
2010-09-02 05:25:38 51°23.248 2°59.364 9.6 340 14.9 101930 46
2010-09-02 05:25:43 51°23.259 2°59.388 9.6 279 14.9 101930 46
2010-09-02 05:25:48 51°23.27 2°59.414 9.9 339 14.8 101930 46
2010-09-02 05:25:53 51°23.28 2°59.438 9.5 277 14.8 101930 46
2010-09-02 05:25:58 51°23.291 2°59.463 9.1 339 14.8 101930 45
2010-09-02 05:26:03 51°23.302 2°59.489 10 285 14.8 101930 45
2010-09-02 05:26:09 51°23.315 2°59.518 9.4 339 14.8 101930 46
2010-09-02 05:26:13 51°23.324 2°59.539 10.2 279 14.8 101930 46
2010-09-02 05:26:17 51°23.332 2°59.559 9.3 339 14.9 101930 44
2010-09-02 05:26:24 51°23.348 2°59.594 10 -999 14.9 101930 44
2010-09-02 05:26:28 51°23.356 2°59.614 10.2 339 14.9 101940 45
2010-09-02 05:26:33 51°23.367 2°59.639 10.2 279 14.9 101940 45
2010-09-02 05:26:38 51°23.378 2°59.664 10.6 339 15 101930 46
2010-09-02 05:26:43 51°23.389 2°59.689 10.3 283 15 101930 46
2010-09-02 05:26:49 51°23.402 2°59.719 10 339 14.9 101930 45
2010-09-02 05:26:53 51°23.411 2°59.739 10.3 284 14.9 101930 45
2010-09-02 05:26:58 51°23.422 2°59.763 9.8 342 14.9 101930 44
2010-09-02 05:27:03 51°23.434 2°59.786 10.3 285 14.9 101930 44
2010-09-02 05:27:08 51°23.447 2°59.808 9.8 344 14.9 101930 45
2010-09-02 05:27:13 51°23.46 2°59.831 9.6 279 14.9 101930 45
2010-09-02 05:27:18 51°23.474 2°59.851 10 344 14.9 101930 43
2010-09-02 05:27:23 51°23.488 2°59.871 9.3 284 14.9 101930 43
2010-09-02 05:27:29 51°23.506 2°59.894 9.4 345 14.9 101940 46
2010-09-02 05:27:33 51°23.518 2°59.909 9.4 284 14.9 101940 46
2010-09-02 05:27:38 51°23.534 2°59.926 8.9 347 14.9 101940 44
2010-09-02 05:27:43 51°23.549 2°59.944 8.9 345 14.9 101940 44
2010-09-02 05:27:48 51°23.565 2°59.961 9.8 347 14.9 101930 44
2010-09-02 05:27:53 51°23.581 2°59.978 9.8 347 14.9 101930 44
2010-09-02 05:27:58 51°23.597 2°59.993 9 349 14.9 101930 45
2010-09-02 05:28:03 51°23.613 3°0.009 8.6 349 14.9 101930 45
2010-09-02 05:28:09 51°23.633 3°0.026 8.9 348 14.9 101930 43
2010-09-02 05:28:13 51°23.646 3°0.038 9.6 350 14.9 101930 43
2010-09-02 05:28:18 51°23.663 3°0.052 8.7 348 14.9 101930 44
2010-09-02 05:28:23 51°23.68 3°0.067 9.5 348 14.9 101930 44
2010-09-02 05:28:28 51°23.697 3°0.081 9.1 346 14.9 101930 44
2010-09-02 05:28:33 51°23.713 3°0.095 8.5 282 14.9 101930 44
2010-09-02 05:28:38 51°23.73 3°0.109 9.3 348 14.9 101930 45
2010-09-02 05:28:43 51°23.747 3°0.124 9.2 347 14.9 101930 45
2010-09-02 05:28:49 51°23.767 3°0.141 8.6 347 15 101930 44
2010-09-02 05:28:53 51°23.78 3°0.152 8.8 281 15 101930 44
2010-09-02 05:28:58 51°23.797 3°0.165 9.2 347 15 101930 43
2010-09-02 05:29:03 51°23.814 3°0.18 9 278 15 101930 43
2010-09-02 05:29:09 51°23.833 3°0.198 10.3 346 15 101930 43
2010-09-02 05:29:13 51°23.847 3°0.209 9.1 283 15 101930 43
2010-09-02 05:29:18 51°23.864 3°0.223 9.8 347 15 101940 45
2010-09-02 05:29:23 51°23.88 3°0.238 8.6 284 15 101940 45
2010-09-02 05:29:28 51°23.897 3°0.252 9.3 347 15 101930 44
2010-09-02 05:29:33 51°23.913 3°0.267 9.3 278 15 101930 44
2010-09-02 05:29:38 51°23.93 3°0.281 8.7 348 15 101930 43
2010-09-02 05:29:43 51°23.946 3°0.296 8.8 281 15 101930 43
2010-09-02 05:29:48 51°23.963 3°0.31 8.7 347 15 101930 44
2010-09-02 05:29:53 51°23.979 3°0.325 9.3 283 15 101930 44
2010-09-02 05:29:58 51°23.996 3°0.339 9.2 345 15 101940 43
2010-09-02 05:30:03 51°24.013 3°0.355 9.6 346 15 101940 43
2010-09-02 05:30:09 51°24.032 3°0.372 9.3 344 15 101930 45
2010-09-02 05:30:13 51°24.046 3°0.384 9.2 280 15 101930 45
2010-09-02 05:30:18 51°24.062 3°0.399 8.6 347 15.1 101940 43
2010-09-02 05:30:23 51°24.079 3°0.413 9.1 348 15.1 101940 43
2010-09-02 05:30:28 51°24.095 3°0.429 9.2 345 15.1 101940 44
2010-09-02 05:30:33 51°24.111 3°0.444 9.2 347 15.1 101940 44
2010-09-02 05:30:38 51°24.127 3°0.459 9.1 346 15.1 101930 45
2010-09-02 05:30:43 51°24.144 3°0.473 9.7 278 15.1 101930 45
2010-09-02 05:30:49 51°24.163 3°0.491 9.5 346 15.1 101940 44
2010-09-02 05:30:53 51°24.176 3°0.503 8.6 280 15.1 101940 44
2010-09-02 05:30:57 51°24.188 3°0.515 8.9 348 15.1 101940 44
2010-09-02 05:31:03 51°24.208 3°0.533 9.4 278 15.1 101940 44
2010-09-02 05:31:08 51°24.224 3°0.548 9.7 343 15.1 101930 45
2010-09-02 05:31:13 51°24.24 3°0.562 9.6 284 15.1 101930 45
2010-09-02 05:31:18 51°24.256 3°0.577 9.6 343 15.1 101940 44
2010-09-02 05:31:23 51°24.272 3°0.592 10.1 278 15.1 101940 44
2010-09-02 05:31:29 51°24.291 3°0.61 9.4 342 15.2 101940 46
2010-09-02 05:31:33 51°24.304 3°0.622 9.5 284 15.2 101940 46
2010-09-02 05:31:38 51°24.32 3°0.637 9.1 343 15.2 101940 45
2010-09-02 05:31:43 51°24.336 3°0.651 8.7 278 15.2 101940 45
2010-09-02 05:31:48 51°24.351 3°0.666 10 343 15.2 101940 45
2010-09-02 05:31:53 51°24.368 3°0.681 9.6 279 15.2 101940 45
2010-09-02 05:31:58 51°24.383 3°0.696 8.8 343 15.2 101940 45
2010-09-02 05:32:03 51°24.399 3°0.711 9.1 283 15.2 101940 45
2010-09-02 05:32:09 51°24.418 3°0.729 8.9 341 15.3 101940 45
2010-09-02 05:32:13 51°24.431 3°0.741 9.4 284 15.3 101940 45
2010-09-02 05:32:18 51°24.447 3°0.756 10.2 342 15.3 101930 45
2010-09-02 05:32:23 51°24.463 3°0.771 9.3 284 15.3 101930 45
2010-09-02 05:32:28 51°24.479 3°0.786 9.5 342 15.3 101940 46
2010-09-02 05:32:33 51°24.495 3°0.801 9.6 281 15.3 101940 46
2010-09-02 05:32:38 51°24.51 3°0.817 9.1 341 15.3 101950 45
2010-09-02 05:32:43 51°24.526 3°0.831 9.7 279 15.3 101950 45
2010-09-02 05:32:49 51°24.545 3°0.849 8.7 343 15.2 101940 46
2010-09-02 05:32:53 51°24.558 3°0.861 8.9 283 15.2 101940 46
2010-09-02 05:32:58 51°24.573 3°0.876 9.4 340 15.2 101940 46
2010-09-02 05:33:03 51°24.589 3°0.891 8.6 283 15.2 101940 46
2010-09-02 05:33:08 51°24.605 3°0.906 9.8 340 15.2 101950 46
2010-09-02 05:33:13 51°24.621 3°0.922 9.9 284 15.2 101950 46
2010-09-02 05:33:18 51°24.637 3°0.937 9 342 15.2 101940 46
2010-09-02 05:33:23 51°24.652 3°0.951 10 280 15.2 101940 46
2010-09-02 05:33:29 51°24.671 3°0.97 9.8 343 15.2 101940 46
2010-09-02 05:33:33 51°24.684 3°0.982 9.2 279 15.2 101940 46
2010-09-02 05:33:38 51°24.7 3°0.997 9.6 343 15.2 101940 47
2010-09-02 05:33:43 51°24.715 3°1.012 9.6 283 15.2 101940 47
2010-09-02 05:33:49 51°24.734 3°1.03 9.4 342 15.2 101940 47
2010-09-02 05:33:53 51°24.746 3°1.041 9.4 285 15.2 101940 47
2010-09-02 05:33:58 51°24.762 3°1.055 9.3 343 15.1 101950 45
2010-09-02 05:34:03 51°24.777 3°1.07 9.3 284 15.1 101950 45
2010-09-02 05:34:09 51°24.797 3°1.088 9.7 342 15.1 101940 46
2010-09-02 05:34:13 51°24.809 3°1.101 9.6 283 15.1 101940 46
2010-09-02 05:34:18 51°24.825 3°1.116 8.4 345 15.1 101940 45
2010-09-02 05:34:23 51°24.84 3°1.131 9.1 284 15.1 101940 45
2010-09-02 05:34:28 51°24.856 3°1.146 9.5 342 15.1 101940 46
2010-09-02 05:34:33 51°24.871 3°1.161 9.6 279 15.1 101940 46
2010-09-02 05:34:38 51°24.886 3°1.176 9.2 344 15.1 101940 46
2010-09-02 05:34:43 51°24.902 3°1.193 9.4 280 15.1 101940 46
2010-09-02 05:34:49 51°24.92 3°1.212 8.5 343 15.1 101950 47
2010-09-02 05:34:53 51°24.932 3°1.225 9.6 279 15.1 101950 47